Weather History for Farmington, MO

Change the Weather History Date:

Wednesday, February 6, 2013

  Actual Average Record
Temperature  
Mean Temperature 40 °F -  
Max Temperature 55 °F 43 °F 64 °F (1999)
Min Temperature 24 °F 26 °F 0 °F (2014)
Degree Days  
Heating Degree Days 26    
Moisture  
Dew Point 27 °F    
Average Humidity 62    
Maximum Humidity 100    
Minimum Humidity 33    
Precipitation  
Precipitation 0.01 in - - ()
Sea Level Pressure  
Sea Level Pressure 30.15 in    
Wind  
Wind Speed 4 mph (SE)    
Max Wind Speed 10 mph    
Max Gust Speed -    
Visibility 10 miles    
Events      
Averages and records for this station are not official NWS values.
T = Trace of Precipitation, MM = Missing Value Source: NWS Daily Summary

Daily Weather History Graph

Daily Weather History Graph

Search for Another Location

Airport:

Trip Planner

Search our weather history database for the weather conditions in past years. The results will help you decide how hot, cold, wet, or windy it might be!

Date:

Astronomy

Feb. 06, 2013 Rise Set
Actual Time 7:00 AM CST 5:31 PM CST
Civil Twilight 6:33 AM CST 5:58 PM CST
Nautical Twilight 6:02 AM CST 6:29 PM CST
Astronomical Twilight 5:31 AM CST 7:00 PM CST
Moon 3:42 AM CST (2/6) 1:51 PM CST (2/6)
Length of Visible Light 11h 25m
Length of Day
10h 30m
Waning Crescent, 17% of the Moon is Illuminated
Feb 6
Waning Crescent
Feb 10
New
Feb 17
First Quarter
Feb 25
Full
Mar 4
Last Quarter

Hourly Weather History & Observations

Time (CST) Temp. Windchill Dew Point Humidity Pressure Visibility Wind Dir Wind Speed Gust Speed Precip Events Conditions
12:15 AM 39.2 °F 35.0 °F 28.4 °F 65% 30.13 in 10.0 mi North 5.8 mph - N/A   Clear
12:35 AM 37.4 °F 32.8 °F 26.6 °F 65% 30.13 in 10.0 mi NE 5.8 mph - N/A   Clear
12:55 AM 37.4 °F 34.9 °F 28.4 °F 70% 30.14 in 10.0 mi NNE 3.5 mph - N/A   Clear
1:15 AM 35.6 °F - 28.4 °F 75% 30.15 in 10.0 mi Calm Calm - N/A   Clear
1:35 AM 35.6 °F - 28.4 °F 75% 30.15 in 10.0 mi Calm Calm - N/A   Clear
1:55 AM 33.8 °F - 26.6 °F 75% 30.16 in 10.0 mi Calm Calm - N/A   Clear
2:15 AM 33.8 °F - 28.4 °F 81% 30.16 in 10.0 mi Calm Calm - N/A   Clear
2:35 AM 33.8 °F - 26.6 °F 75% 30.16 in 10.0 mi Calm Calm - N/A   Clear
2:55 AM 32.0 °F - 26.6 °F 80% 30.16 in 10.0 mi Calm Calm - N/A   Clear
3:15 AM 32.0 °F - 26.6 °F 80% 30.17 in 10.0 mi Calm Calm - N/A   Clear
3:35 AM 28.4 °F - 24.8 °F 86% 30.17 in 10.0 mi Calm Calm - N/A   Clear
3:55 AM 28.4 °F - 26.6 °F 93% 30.16 in 10.0 mi Calm Calm - N/A   Clear
4:15 AM 26.6 °F - 23.0 °F 86% 30.17 in 9.0 mi Calm Calm - N/A   Clear
4:35 AM 26.6 °F - 24.8 °F 93% 30.18 in 10.0 mi Calm Calm - N/A   Clear
4:55 AM 28.4 °F - 24.8 °F 86% 30.18 in 8.0 mi Calm Calm - N/A   Clear
5:15 AM 26.6 °F - 24.8 °F 93% 30.18 in 8.0 mi Calm Calm - N/A   Clear
5:35 AM 26.6 °F - 21.2 °F 80% 30.18 in 7.0 mi Calm Calm - N/A   Clear
5:55 AM 26.6 °F - 21.2 °F 80% 30.18 in 8.0 mi Calm Calm - N/A   Clear
6:15 AM 26.6 °F 20.0 °F 23.0 °F 86% 30.17 in 8.0 mi NE 5.8 mph - N/A   Clear
6:35 AM 26.6 °F - 21.2 °F 80% 30.17 in 7.0 mi Calm Calm - N/A   Clear
6:55 AM 24.8 °F - 21.2 °F 86% 30.18 in 6.0 mi Calm Calm - N/A   Clear
7:15 AM 24.8 °F - 23.0 °F 93% 30.20 in 5.0 mi Calm Calm - N/A   Clear
7:35 AM 28.4 °F - 26.6 °F 93% 30.20 in 5.0 mi Calm Calm - N/A   Clear
7:55 AM 26.6 °F 21.2 °F 26.6 °F 100% 30.22 in 5.0 mi SSW 4.6 mph - N/A   Clear
8:15 AM 28.4 °F - 26.6 °F 93% 30.23 in 7.0 mi Calm Calm - N/A   Clear
8:35 AM 32.0 °F 27.5 °F 28.4 °F 87% 30.24 in 10.0 mi South 4.6 mph - N/A   Clear
8:55 AM 35.6 °F 29.9 °F 28.4 °F 75% 30.24 in 10.0 mi SSE 6.9 mph - N/A   Clear
9:35 AM 37.4 °F 30.8 °F 30.2 °F 75% 30.25 in 10.0 mi South 9.2 mph - N/A   Clear
9:55 AM 39.2 °F 33.6 °F 28.4 °F 65% 30.26 in 10.0 mi South 8.1 mph - N/A   Clear
10:15 AM 42.8 °F 38.6 °F 28.4 °F 57% 30.24 in 10.0 mi SSE 6.9 mph - N/A   Clear
10:35 AM 44.6 °F 43.1 °F 33.8 °F 66% 30.24 in 10.0 mi ESE 3.5 mph - N/A   Clear
10:55 AM 42.8 °F 40.1 °F 28.4 °F 57% 30.24 in 10.0 mi ESE 4.6 mph - 0.01 in   Clear
11:15 AM 44.6 °F 41.4 °F 28.4 °F 53% 30.23 in 10.0 mi ESE 5.8 mph - N/A   Clear
11:35 AM 46.4 °F 42.4 °F 28.4 °F 50% 30.22 in 10.0 mi ESE 8.1 mph - N/A   Clear
11:55 AM 48.2 °F - 28.4 °F 46% 30.21 in 10.0 mi East 6.9 mph - N/A   Clear
12:15 PM 48.2 °F - 28.4 °F 46% 30.19 in 10.0 mi East 8.1 mph - N/A   Clear
12:35 PM 50.0 °F - 28.4 °F 43% 30.18 in 10.0 mi SE 6.9 mph - N/A   Clear
12:55 PM 51.8 °F - 28.4 °F 41% 30.17 in 10.0 mi East 6.9 mph - N/A   Clear
1:15 PM 53.6 °F - 28.4 °F 38% 30.16 in 10.0 mi ESE 9.2 mph - N/A   Clear
1:35 PM 53.6 °F - 26.6 °F 35% 30.15 in 10.0 mi ESE 8.1 mph - N/A   Clear
1:55 PM 53.6 °F - 26.6 °F 35% 30.14 in 10.0 mi East 9.2 mph - N/A   Clear
2:15 PM 55.4 °F - 26.6 °F 33% 30.14 in 10.0 mi SE 8.1 mph - N/A   Clear
2:35 PM 55.4 °F - 26.6 °F 33% 30.14 in 10.0 mi South 10.4 mph - N/A   Clear
2:55 PM 55.4 °F - 26.6 °F 33% 30.13 in 10.0 mi South 9.2 mph - N/A   Clear
3:15 PM 55.4 °F - 26.6 °F 33% 30.13 in 10.0 mi South 10.4 mph - N/A   Clear
3:35 PM 53.6 °F - 26.6 °F 35% 30.12 in 10.0 mi SE 6.9 mph - N/A   Clear
3:55 PM 53.6 °F - 24.8 °F 33% 30.12 in 10.0 mi SE 6.9 mph - N/A   Clear
4:15 PM 51.8 °F - 26.6 °F 38% 30.13 in 10.0 mi SE 6.9 mph - N/A   Clear
4:35 PM 51.8 °F - 26.6 °F 38% 30.12 in 10.0 mi SE 8.1 mph - N/A   Clear
4:55 PM 51.8 °F - 26.6 °F 38% 30.12 in 10.0 mi SE 9.2 mph - N/A   Clear
5:15 PM 50.0 °F - 26.6 °F 40% 30.11 in 10.0 mi SE 8.1 mph - N/A   Clear
5:35 PM 48.2 °F - 26.6 °F 43% 30.11 in 10.0 mi SE 6.9 mph - N/A   Clear
5:55 PM 46.4 °F 42.9 °F 28.4 °F 50% 30.11 in 10.0 mi SE 6.9 mph - N/A   Clear
6:15 PM 46.4 °F 42.9 °F 26.6 °F 46% 30.11 in 10.0 mi SE 6.9 mph - N/A   Clear
6:35 PM 46.4 °F 41.9 °F 28.4 °F 50% 30.10 in 10.0 mi SE 9.2 mph - N/A   Clear
6:55 PM 44.6 °F 40.7 °F 28.4 °F 53% 30.10 in 10.0 mi SSE 6.9 mph - N/A   Clear
7:15 PM 44.6 °F 40.7 °F 28.4 °F 53% 30.11 in 10.0 mi SSE 6.9 mph - N/A   Clear
7:35 PM 44.6 °F 42.2 °F 28.4 °F 53% 30.12 in 10.0 mi South 4.6 mph - N/A   Clear
7:55 PM 44.6 °F 39.7 °F 30.2 °F 57% 30.12 in 10.0 mi South 9.2 mph - N/A   Clear
8:15 PM 44.6 °F 40.2 °F 30.2 °F 57% 30.12 in 10.0 mi SSE 8.1 mph - N/A   Clear
8:35 PM 42.8 °F 40.1 °F 30.2 °F 61% 30.12 in 10.0 mi SSE 4.6 mph - N/A   Clear
8:55 PM 42.8 °F 39.3 °F 30.2 °F 61% 30.12 in 10.0 mi SSE 5.8 mph - N/A   Clear
9:15 PM 42.8 °F 40.1 °F 30.2 °F 61% 30.11 in 10.0 mi SSE 4.6 mph - N/A   Clear
9:35 PM 42.8 °F 38.6 °F 30.2 °F 61% 30.11 in 10.0 mi SSE 6.9 mph - N/A   Clear
9:55 PM 41.0 °F 37.1 °F 30.2 °F 65% 30.10 in 10.0 mi SSE 5.8 mph - N/A   Clear
10:15 PM 42.8 °F 38.0 °F 30.2 °F 61% 30.09 in 10.0 mi SSE 8.1 mph - N/A   Clear
10:35 PM 42.8 °F 38.6 °F 30.2 °F 61% 30.09 in 10.0 mi SSE 6.9 mph - N/A   Clear
10:55 PM 41.0 °F 36.4 °F 28.4 °F 61% 30.08 in 10.0 mi SSE 6.9 mph - N/A   Clear
11:15 PM 41.0 °F 36.4 °F 28.4 °F 61% 30.07 in 10.0 mi SSE 6.9 mph - N/A   Clear
11:35 PM 41.0 °F 39.0 °F 28.4 °F 61% 30.08 in 10.0 mi South 3.5 mph - N/A   Clear
11:55 PM 41.0 °F 38.0 °F 28.4 °F 61% 30.08 in 10.0 mi South 4.6 mph - N/A   Clear